Weather History for Gainesville, FL

Change the Weather History Date:

Monday, September 16, 2013

  Actual Average Record
Temperature  
Mean Temperature 83 °F 78 °F  
Max Temperature 93 °F 88 °F 98 °F (1927)
Min Temperature 73 °F 69 °F 57 °F (2001)
Degree Days  
Heating Degree Days 0 0  
Month to date heating degree days 0 0  
Since 1 July heating degree days 0 0  
Cooling Degree Days 18 13  
Month to date cooling degree days 256 230  
Year to date cooling degree days 2318 2174  
Growing Degree Days 33 (Base 50)    
Moisture  
Dew Point 72 °F    
Average Humidity 71    
Maximum Humidity 100    
Minimum Humidity 41    
Precipitation  
Precipitation 0.00 in 0.14 in 3.30 in (1965)
Month to date precipitation 0.71 2.54  
Year to date precipitation 37.41 38.11  
Snow  
Snow 0.00 in 0.00 in 0.00 in ()
Month to date snowfall 0.0 0.0  
Since 1 July snowfall 0.0 0.0  
Since 1 September snowfall 0.0 0.0  
Snow Depth 0.00 in    
Sea Level Pressure  
Sea Level Pressure 30.07 in    
Wind  
Wind Speed 4 mph (East)    
Max Wind Speed 13 mph    
Max Gust Speed 17 mph    
Visibility 7 miles    
Events Fog    
T = Trace of Precipitation, MM = Missing Value Source: NWS Daily Summary

Daily Weather History Graph

Daily Weather History Graph

Search for Another Location

Airport:

Trip Planner

Search our weather history database for the weather conditions in past years. The results will help you decide how hot, cold, wet, or windy it might be!

Date:

Astronomy

Sep. 16, 2013 Rise Set
Actual Time 7:14 AM EDT 7:32 PM EDT
Civil Twilight 6:50 AM EDT 7:56 PM EDT
Nautical Twilight 6:22 AM EDT 8:24 PM EDT
Astronomical Twilight 5:54 AM EDT 8:52 PM EDT
Moon 5:32 PM EDT (9/16) 4:10 AM EDT (9/16)
Length of Visible Light 13h 06m
Length of Day
12h 18m
Waxing Gibbous, 90% of the Moon is Illuminated
Sep 16
Waxing Gibbous
Sep 19
Full
Sep 26
Last Quarter
Oct 4
New
Oct 11
First Quarter

Hourly Weather History & Observations

Time (EDT) Temp. Heat Index Dew Point Humidity Pressure Visibility Wind Dir Wind Speed Gust Speed Precip Events Conditions
12:53 AM 75.0 °F - 73.0 °F 94% 30.09 in 8.0 mi Calm Calm - N/A   Scattered Clouds
1:00 AM 75.2 °F - 73.4 °F 94% 30.09 in 8.0 mi Calm Calm - N/A   Mostly Cloudy
1:10 AM 75.2 °F - 73.4 °F 94% 30.10 in 8.0 mi Calm Calm - N/A   Scattered Clouds
1:53 AM 75.0 °F - 73.0 °F 94% 30.08 in 8.0 mi Calm Calm - N/A   Clear
2:53 AM 75.0 °F - 73.0 °F 94% 30.06 in 7.0 mi NNW 5.8 mph - N/A   Clear
3:53 AM 73.9 °F - 72.0 °F 93% 30.05 in 7.0 mi Calm Calm - N/A   Partly Cloudy
4:06 AM 73.4 °F - 71.6 °F 94% 30.07 in 6.0 mi Calm Calm - N/A   Mostly Cloudy
4:53 AM 75.0 °F - 73.0 °F 94% 30.06 in 8.0 mi North 5.8 mph - N/A   Mostly Cloudy
5:04 AM 75.2 °F - 73.4 °F 94% 30.06 in 8.0 mi North 6.9 mph - N/A   Scattered Clouds
5:53 AM 73.9 °F - 73.0 °F 97% 30.06 in 6.0 mi Calm Calm - N/A   Clear
6:53 AM 73.0 °F - 71.1 °F 93% 30.07 in 5.0 mi Calm Calm - N/A   Partly Cloudy
7:08 AM 73.4 °F - 71.6 °F 94% 30.09 in 5.0 mi Calm Calm - N/A   Mostly Cloudy
7:25 AM 73.4 °F - 71.6 °F 94% 30.09 in 1.8 mi Calm Calm - N/A   Overcast
7:28 AM 73.4 °F - 71.6 °F 94% 30.09 in 0.2 mi Calm Calm - N/A Fog Fog
7:53 AM 73.9 °F - 73.0 °F 97% 30.09 in 0.2 mi ENE 3.5 mph - N/A Fog Fog
8:12 AM 75.2 °F - 73.4 °F 94% 30.10 in 0.2 mi ENE 3.5 mph - N/A Fog Fog
8:39 AM 75.2 °F - 73.4 °F 94% 30.10 in 0.2 mi East 3.5 mph - N/A Fog Fog
8:53 AM 75.9 °F - 73.9 °F 94% 30.10 in 0.5 mi East 3.5 mph - N/A Fog Fog
9:04 AM 75.2 °F - 75.2 °F 100% 30.11 in 1.5 mi Calm Calm - N/A   Overcast
9:08 AM 75.2 °F - 75.2 °F 100% 30.11 in 3.0 mi East 3.5 mph - N/A   Overcast
9:41 AM 80.6 °F 86.2 °F 75.2 °F 84% 30.11 in 10.0 mi East 4.6 mph - N/A   Partly Cloudy
9:53 AM 82.0 °F 87.9 °F 73.9 °F 76% 30.10 in 10.0 mi East 5.8 mph - N/A   Partly Cloudy
10:53 AM 84.9 °F 92.1 °F 73.9 °F 69% 30.09 in 10.0 mi Variable 4.6 mph - N/A   Partly Cloudy
11:53 AM 88.0 °F 92.9 °F 70.0 °F 55% 30.08 in 10.0 mi Calm Calm - N/A   Partly Cloudy
12:53 PM 89.1 °F 94.1 °F 70.0 °F 53% 30.07 in 10.0 mi East 8.1 mph - N/A   Scattered Clouds
1:53 PM 91.9 °F 94.5 °F 66.0 °F 42% 30.04 in 10.0 mi East 6.9 mph - N/A   Partly Cloudy
2:53 PM 91.9 °F 94.5 °F 66.0 °F 42% 30.02 in 10.0 mi ESE 8.1 mph - N/A   Partly Cloudy
3:53 PM 93.0 °F 96.4 °F 66.9 °F 42% 30.00 in 10.0 mi East 8.1 mph - N/A   Scattered Clouds
4:53 PM 91.9 °F 95.4 °F 66.9 °F 44% 29.98 in 10.0 mi SE 11.5 mph - N/A   Scattered Clouds
5:53 PM 90.0 °F 92.8 °F 66.9 °F 46% 30.00 in 10.0 mi East 11.5 mph - N/A   Partly Cloudy
6:53 PM 84.9 °F 88.8 °F 69.1 °F 59% 30.00 in 10.0 mi East 8.1 mph - N/A   Scattered Clouds
7:53 PM 82.0 °F 85.9 °F 70.0 °F 67% 30.01 in 10.0 mi East 6.9 mph - N/A   Clear
8:53 PM 79.0 °F - 70.0 °F 74% 30.04 in 10.0 mi ESE 3.5 mph - N/A   Clear
9:53 PM 77.0 °F - 71.1 °F 82% 30.06 in 10.0 mi East 3.5 mph - N/A   Clear
10:53 PM 77.0 °F - 71.1 °F 82% 30.05 in 10.0 mi Calm Calm - N/A   Clear
11:53 PM 75.0 °F - 71.1 °F 87% 30.05 in 10.0 mi Calm Calm - N/A   Clear